Torna al catalogo

STARLINK-31741

AttivoComunicazioniVLEO
NORAD 59550·PAYLOAD·🇺🇸 United States

Lanciato Apr 18, 2024 da Cape Canaveral Space Force Station

Loading…

Prossimi Passaggi (prossime 24 ore)

TLE

AggiornatoSource: CelesTrak SupGP

Epoca: Sep 14, 2026, 22:44 UTC

1 59550C 24074S   26257.94770833 -.00020032  00000+0 -72569-3 0  2571
2 59550  43.0016 354.3869 0001531 266.8731  51.0714 15.27582690    15

Traccia STARLINK-31741 in tempo reale con AllMySat

Download on the App Store